Flag for Switzerland Weather past 2 weeks in Thun, Bern, Switzerland

Now
36 °F

Scattered clouds.


Feels Like: 36 °F
Forecast: 29 / 40 °F
Wind: 2 mph from Southwest

Location: Bern / Belp

Current Time: Dec 26, 2014 at 4:58:16 PM

Latest Report: Dec 26, 2014 at 4:20 PM


Visibility: N/A

Pressure: 30.33 "Hg

Humidity: 75%

Dew point: 28 °F

Location of ThunLocation

Historic Weather in Thun — Graph

°F

Thun temperature yesterday

Maximum temperature yesterday: 48 °F (at 12:20 PM)
Minimum temperature yesterday: 30 °F (at 9:20 PM)
Average temperature yesterday: 37 °F

Past Weeks' High & Low Weather Summary

 TemperatureHumidityPressure
High54 °F (Dec 19, 2:20 PM)100% (Dec 12, 8:50 AM)30.54 "Hg (Dec 12, 8:50 AM)
Low23 °F (Dec 23, 7:50 AM)47% (Dec 23, 2:20 PM)29.86 "Hg (Dec 12, 3:20 PM)
Average38 °F88%30.19 "Hg
* Reported Dec 11 3:20 PM — Dec 26 3:20 PM, Thun, Weather by CustomWeather, © 2014

Note: Actual official high and low records may vary slightly from our data, if they occured in-between our weather recording intervals... More about our weather records

Advertising

Thun weather history for previous 24 hours

 ConditionsComfort  
Time TempWeatherWind HumidityBarometerVisibility
3:20 PM
Dec 26
39 °FPartly sunny.5 mph61%30.36 "HgN/A
2:50 PM39 °FPartly sunny.3 mph61%30.36 "HgN/A
2:20 PM41 °FPartly sunny.3 mph57%30.36 "HgN/A
1:50 PM39 °FPartly sunny.1 mph70%30.36 "HgN/A
1:20 PM39 °FPartly sunny.2 mph70%30.36 "HgN/A
12:50 PM37 °FScattered clouds.5 mph93%30.39 "HgN/A
12:20 PM32 °FScattered clouds.1 mph100%30.39 "HgN/A
11:50 AM34 °FScattered clouds.1 mph93%30.42 "HgN/A
11:20 AM34 °FPartly sunny.1 mph93%30.42 "HgN/A
10:50 AM34 °FScattered clouds.1 mph93%30.42 "HgN/A
10:20 AM32 °FScattered clouds.2 mph100%30.42 "HgN/A
9:50 AM32 °FBroken clouds.1 mph93%30.42 "Hg5 mi
9:20 AM30 °FPartly sunny.1 mph93%30.42 "Hg5 mi
8:50 AM28 °FOvercast.1 mph100%30.42 "Hg5 mi
8:20 AM28 °FPartly sunny.3 mph100%30.42 "Hg5 mi
7:50 AM30 °FPartly cloudy.2 mph93%30.42 "Hg3 mi
7:20 AM30 °FLow clouds.3 mph100%30.42 "Hg4 mi
6:50 AM30 °FLow clouds.3 mph100%30.42 "Hg4 mi
6:20 AM28 °FIce fog.6 mph100%30.39 "Hg2 mi
5:50 AM30 °FIce fog.3 mph100%30.39 "Hg2 mi
5:20 AM30 °FIce fog.2 mph93%30.42 "Hg2 mi
4:50 AM30 °FIce fog.1 mph100%30.42 "Hg2 mi
4:20 AM32 °FSnow flurries. Partly cloudy.1 mph93%30.42 "Hg3 mi
3:20 AM32 °FSnow. Passing clouds.2 mph100%30.42 "Hg1 mi
2:50 AM32 °FLight snow. Passing clouds.1 mph100%30.42 "Hg2 mi
2:20 AM30 °FOvercast.2 mph100%30.42 "Hg3 mi
1:50 AM30 °FPassing clouds.1 mph100%30.39 "Hg3 mi
1:20 AM30 °FPassing clouds.2 mph100%30.39 "Hg3 mi
12:50 AM32 °FPassing clouds.2 mph93%30.39 "HgN/A
12:20 AM32 °FSnow flurries. Passing clouds.5 mph100%30.39 "HgN/A
11:50 PM
Dec 25
34 °FSnow flurries. Partly cloudy.3 mph87%30.42 "HgN/A
11:20 PM32 °FSprinkles. Passing clouds.3 mph100%30.42 "HgN/A
10:50 PM32 °FOvercast.1 mph93%30.42 "HgN/A
10:20 PM30 °FPassing clouds.1 mph93%30.42 "HgN/A
9:50 PM30 °FPassing clouds.1 mph93%30.39 "HgN/A
9:20 PM30 °FClear.3 mph100%30.39 "Hg10 mi
8:50 PM32 °FClear.2 mph93%30.39 "Hg10 mi
8:20 PM34 °FPassing clouds.1 mph93%30.39 "HgN/A
7:50 PM36 °FPassing clouds.2 mph87%30.39 "HgN/A
7:20 PM37 °FPassing clouds.2 mph81%30.39 "HgN/A
6:50 PM37 °FMostly cloudy.1 mph81%30.39 "HgN/A
6:20 PM39 °FOvercast.1 mph75%30.36 "HgN/A
5:50 PM39 °FOvercast.3 mph75%30.36 "HgN/A
5:20 PM39 °FOvercast.3 mph75%30.33 "HgN/A
4:20 PM41 °FBroken clouds.3 mph76%30.33 "HgN/A
Weather by CustomWeather, © 2014

See weather overviewHow to use our weather pages